STARLINK-1702

decayed
NORAD ID: 46551 Int'l Des: 2020-070 Owner: SPXS Country: US Constellation: starlink
LEOCIRCULAR
Gruppe

Über STARLINK-1702

Beschreibung wird geladen...

Höhenverlauf

Altitude vs Time

uPlot chart will show altitude changes over time

Zweizeiliger Elementsatz

1 46551U 20070V 21065.92065322 .62648057 12504-4 77239-3 0 9998
2 46551 52.9647 46.1242 0010495 137.6549 320.6458 16.48963428 24699
Epoch: 6. März 2021 • Age: 39697 hours

Aktueller Status

Position data unavailable
Startdatum 6. Okt. 2020
Alter 4.9 years
Verglühungsdatum 6. März 2021
Typ internet

Technische Details

Klassifizierung Payload
Masse 260.00 kg
Trockenmasse 248.00 kg
Gesamtmasse 260.00 kg
Länge 0.20 m
Durchmesser 2.80 m
Spannweite 9.00 m
Form Box + pan
Hersteller SPXS
Bus-Typ Starlink
Phasenstatus Reentered
Besitzer/Staat SPXS/US

Große Konstellationen

Loading constellations...